Starlink 32220

operational
NORAD ID: 60370 Int'l Des: 2024-138 Owner: SPXS Country: US Constellation: starlink
LEOCIRCULAR

关于 Starlink 32220

正在加载描述...

实时位置

正在加载3D地球...

即将过境

高度历史

Altitude vs Time

uPlot chart will show altitude changes over time

两行轨道根数

1 60370U 24138R 25260.65734055 .00003073 00000-0 11574-3 0 9998
2 60370 53.1632 33.4610 0001443 96.6652 263.4513 15.30224671 64130
Epoch: Sep 17, 2025 • Age: 25 hours

当前状态

高度 491.9 km
速度 7.62 km/s
星下点 -46.41°S, 90.68°E
发射日期 Aug 4, 2024
运行时间 1.1 years
类型 internet

技术详情

分类 Payload
质量 730.00 kg
干质量 700.00 kg
总质量 730.00 kg
长度 0.30 m
直径 4.10 m
跨度 29.00 m
形状 Box + pan
制造商 SPXS
平台类型 Starlink V2M
阶段状态 In Orbit
所有者/国家 SPXS/US

大型星座

Loading constellations...